• In Belarus
  • List of Countries
  • For 7 days
  • Water Temperature
  • Weather Map
  • Weather Widgets
  • user-avatar
    Login

    Hourly Weather Mérida

    Today, 21 October, Monday

    Time Temperature Precipitation Wind Pressure Humidity
    00:00 +14°C° 0.1 mm 1 mps 592 mmHg 91%
    01:00 +14°C° 0.1 mm 1 mps 591 mmHg 90%
    02:00 +14°C° 0 mm 1 mps 591 mmHg 90%
    03:00 +13°C° 0 mm 1 mps 591 mmHg 90%
    04:00 +13°C° 0 mm 1 mps 591 mmHg 90%
    05:00 +15°C° 0 mm 1 mps 592 mmHg 87%
    06:00 +16°C° 0 mm 1 mps 593 mmHg 84%
    07:00 +18°C° 0 mm 1 mps 594 mmHg 81%
    08:00 +19°C° 0.2 mm 1 mps 594 mmHg 80%
    09:00 +21°C° 0.2 mm 1 mps 595 mmHg 78%
    10:00 +21°C° 0.2 mm 2 mps 595 mmHg 77%
    11:00 +21°C° 1.1 mm 1 mps 594 mmHg 82%
    12:00 +21°C° 1.1 mm 1 mps 593 mmHg 87%
    13:00 +20°C° 1.1 mm 1 mps 592 mmHg 92%
    14:00 +20°C° 1.2 mm 1 mps 592 mmHg 92%
    15:00 +20°C° 1.2 mm 1 mps 592 mmHg 93%
    16:00 +17°C° 1.2 mm 0 mps 592 mmHg 93%
    17:00 +16°C° 0.8 mm 0 mps 592 mmHg 94%
    18:00 +15°C° 0.8 mm 0 mps 591 mmHg 95%
    19:00 +15°C° 0.8 mm 0 mps 591 mmHg 96%
    20:00 +16°C° 0.9 mm 1 mps 592 mmHg 95%
    21:00 +16°C° 0.9 mm 1 mps 592 mmHg 94%
    22:00 +15°C° 0.9 mm 1 mps 592 mmHg 93%
    23:00 +15°C° 0.4 mm 1 mps 592 mmHg 93%

    Tomorrow, 22 October, Tuesday

    Time Temperature Precipitation Wind Pressure Humidity
    00:00 +14°C° 0.4 mm 0 mps 592 mmHg 93%
    01:00 +14°C° 0.4 mm 0 mps 592 mmHg 92%
    02:00 +14°C° 0.1 mm 0 mps 591 mmHg 92%
    03:00 +15°C° 0.1 mm 1 mps 591 mmHg 92%
    04:00 +15°C° 0.1 mm 1 mps 591 mmHg 92%
    05:00 +14°C° 0 mm 0 mps 592 mmHg 90%
    06:00 +15°C° 0 mm 0 mps 592 mmHg 89%
    07:00 +16°C° 0 mm 0 mps 593 mmHg 87%
    08:00 +17°C° 0.5 mm 0 mps 594 mmHg 87%
    09:00 +20°C° 0.5 mm 1 mps 594 mmHg 87%
    10:00 +19°C° 0.5 mm 2 mps 594 mmHg 87%
    11:00 +20°C° 1.8 mm 1 mps 593 mmHg 90%
    12:00 +19°C° 1.8 mm 1 mps 593 mmHg 93%
    13:00 +19°C° 1.8 mm 1 mps 592 mmHg 96%
    14:00 +18°C° 1.8 mm 1 mps 591 mmHg 96%
    15:00 +18°C° 1.8 mm 1 mps 591 mmHg 95%
    16:00 +18°C° 1.8 mm 1 mps 591 mmHg 95%
    17:00 +16°C° 0.7 mm 1 mps 591 mmHg 95%
    18:00 +15°C° 0.7 mm 0 mps 591 mmHg 95%
    19:00 +14°C° 0.7 mm 0 mps 591 mmHg 95%
    20:00 +14°C° 0.3 mm 0 mps 591 mmHg 96%
    21:00 +14°C° 0.3 mm 0 mps 592 mmHg 96%
    22:00 +14°C° 0.3 mm 0 mps 592 mmHg 96%
    23:00 +14°C° 0.3 mm 0 mps 592 mmHg 96%

    Day after tomorrow, 23 October, Wednesday

    Time Temperature Precipitation Wind Pressure Humidity
    00:00 +14°C° 0.3 mm 0 mps 591 mmHg 96%
    01:00 +14°C° 0.3 mm 0 mps 591 mmHg 95%
    02:00 +14°C° 0.1 mm 0 mps 591 mmHg 95%
    03:00 +14°C° 0.1 mm 0 mps 591 mmHg 94%
    04:00 +14°C° 0.1 mm 0 mps 591 mmHg 94%
    05:00 +14°C° 0 mm 0 mps 591 mmHg 91%
    06:00 +15°C° 0 mm 0 mps 592 mmHg 89%
    07:00 +16°C° 0 mm 0 mps 592 mmHg 87%
    08:00 +19°C° 0.3 mm 1 mps 593 mmHg 86%
    09:00 +20°C° 0.3 mm 1 mps 594 mmHg 85%
    10:00 +20°C° 0.3 mm 2 mps 594 mmHg 84%
    11:00 +19°C° 1.6 mm 2 mps 593 mmHg 87%
    12:00 +19°C° 1.6 mm 1 mps 592 mmHg 90%
    13:00 +19°C° 1.6 mm 1 mps 591 mmHg 93%
    14:00 +19°C° 1.4 mm 1 mps 591 mmHg 93%
    15:00 +19°C° 1.4 mm 1 mps 591 mmHg 92%
    16:00 +16°C° 1.4 mm 0 mps 591 mmHg 92%
    17:00 +16°C° 0.3 mm 0 mps 591 mmHg 93%
    18:00 +15°C° 0.3 mm 0 mps 591 mmHg 94%
    19:00 +14°C° 0.3 mm 0 mps 591 mmHg 95%
    20:00 +15°C° 0.1 mm 1 mps 591 mmHg 93%
    21:00 +14°C° 0.1 mm 1 mps 591 mmHg 91%
    22:00 +13°C° 0.1 mm 1 mps 591 mmHg 89%
    23:00 +13°C° 0 mm 1 mps 590 mmHg 85%

    24 October, Thursday

    Time Temperature Precipitation Wind Pressure Humidity
    00:00 +12°C° 0 mm 1 mps 590 mmHg 81%
    01:00 +12°C° 0 mm 1 mps 589 mmHg 78%
    02:00 +12°C° 0 mm 2 mps 589 mmHg 75%
    03:00 +12°C° 0 mm 2 mps 589 mmHg 73%
    04:00 +12°C° 0 mm 2 mps 589 mmHg 70%
    05:00 +13°C° 0 mm 2 mps 590 mmHg 66%
    06:00 +14°C° 0 mm 1 mps 591 mmHg 63%
    07:00 +16°C° 0 mm 1 mps 592 mmHg 59%
    08:00 +17°C° 0 mm 2 mps 593 mmHg 56%
    09:00 +19°C° 0 mm 2 mps 594 mmHg 53%
    10:00 +21°C° 0 mm 2 mps 595 mmHg 49%
    11:00 +21°C° 0.1 mm 2 mps 595 mmHg 54%
    12:00 +23°C° 0.1 mm 2 mps 594 mmHg 58%
    13:00 +23°C° 0.1 mm 2 mps 594 mmHg 62%
    14:00 +21°C° 0.4 mm 2 mps 593 mmHg 71%
    15:00 +20°C° 0.4 mm 2 mps 592 mmHg 80%
    16:00 +20°C° 0.4 mm 1 mps 591 mmHg 88%
    17:00 +18°C° 0.6 mm 1 mps 591 mmHg 90%
    18:00 +16°C° 0.6 mm 1 mps 591 mmHg 92%
    19:00 +15°C° 0.6 mm 1 mps 591 mmHg 94%
    20:00 +15°C° 0.3 mm 1 mps 591 mmHg 93%
    21:00 +15°C° 0.3 mm 1 mps 592 mmHg 91%
    22:00 +15°C° 0.3 mm 1 mps 592 mmHg 90%
    23:00 +15°C° 0 mm 1 mps 592 mmHg 90%

    25 October, Friday

    Time Temperature Precipitation Wind Pressure Humidity
    00:00 +15°C° 0 mm 1 mps 591 mmHg 90%
    01:00 +14°C° 0 mm 1 mps 591 mmHg 90%
    02:00 +15°C° 0.1 mm 1 mps 591 mmHg 90%
    03:00 +15°C° 0.1 mm 1 mps 591 mmHg 90%
    04:00 +15°C° 0.1 mm 1 mps 591 mmHg 90%
    05:00 +15°C° 0 mm 1 mps 592 mmHg 88%
    06:00 +16°C° 0 mm 1 mps 593 mmHg 87%
    07:00 +18°C° 0 mm 1 mps 593 mmHg 85%
    08:00 +19°C° 0.2 mm 1 mps 594 mmHg 81%
    09:00 +19°C° 0.2 mm 2 mps 595 mmHg 77%
    10:00 +21°C° 0.2 mm 2 mps 595 mmHg 72%
    11:00 +20°C° 1 mm 2 mps 594 mmHg 78%
    12:00 +20°C° 1 mm 2 mps 593 mmHg 83%
    13:00 +20°C° 1 mm 1 mps 592 mmHg 88%
    14:00 +20°C° 0.9 mm 1 mps 592 mmHg 89%
    15:00 +19°C° 0.9 mm 1 mps 592 mmHg 90%
    16:00 +19°C° 0.9 mm 1 mps 591 mmHg 92%
    17:00 +18°C° 0.7 mm 1 mps 591 mmHg 92%
    18:00 +16°C° 0.7 mm 1 mps 591 mmHg 93%
    19:00 +16°C° 0.7 mm 1 mps 592 mmHg 94%
    20:00 +15°C° 0.2 mm 1 mps 592 mmHg 94%
    21:00 +15°C° 0.2 mm 1 mps 592 mmHg 93%
    22:00 +15°C° 0.2 mm 1 mps 592 mmHg 92%
    23:00 +15°C° 0.1 mm 1 mps 592 mmHg 92%

    26 October, Saturday

    Time Temperature Precipitation Wind Pressure Humidity
    00:00 +15°C° 0.1 mm 1 mps 592 mmHg 92%
    01:00 +15°C° 0.1 mm 1 mps 592 mmHg 91%
    02:00 +15°C° 0 mm 1 mps 591 mmHg 91%
    03:00 +14°C° 0 mm 1 mps 591 mmHg 91%
    04:00 +14°C° 0 mm 1 mps 591 mmHg 91%
    05:00 +15°C° 0 mm 1 mps 592 mmHg 88%
    06:00 +16°C° 0 mm 1 mps 592 mmHg 86%
    07:00 +18°C° 0 mm 1 mps 593 mmHg 83%
    08:00 +19°C° 0.1 mm 1 mps 594 mmHg 79%
    09:00 +20°C° 0.1 mm 2 mps 595 mmHg 75%
    10:00 +21°C° 0.1 mm 2 mps 595 mmHg 70%
    11:00 +21°C° 1.1 mm 2 mps 594 mmHg 76%
    12:00 +21°C° 1.1 mm 1 mps 593 mmHg 83%
    13:00 +20°C° 1.1 mm 1 mps 592 mmHg 89%
    14:00 +20°C° 1.1 mm 1 mps 592 mmHg 88%
    15:00 +20°C° 1.1 mm 1 mps 592 mmHg 88%
    16:00 +20°C° 1.1 mm 1 mps 591 mmHg 88%
    17:00 +18°C° 0.2 mm 1 mps 591 mmHg 90%
    18:00 +16°C° 0.2 mm 1 mps 591 mmHg 93%
    19:00 +14°C° 0.2 mm 0 mps 591 mmHg 95%
    20:00 +15°C° 0.1 mm 1 mps 591 mmHg 94%
    21:00 +15°C° 0.1 mm 1 mps 591 mmHg 92%
    22:00 +14°C° 0.1 mm 1 mps 591 mmHg 90%
    23:00 +14°C° 0 mm 1 mps 591 mmHg 88%
    Show more